Home > Time Zones > World Clock > Weather > India > Unnao > Past weeks

Flag for India Weather past 2 weeks in Unnao, Uttar Pradesh, India

Now
79 °F

Haze.


Feels Like: 80 °F
Forecast: 87 / 110 °F
Wind: 2 mph from North

Location: Lucknow / Amausi

Current Time: May 23, 2015 at 5:30:46 AM

Latest Report: May 23, 2015 at 4:00 AM


Visibility: 2 mi

Pressure: 29.45 "Hg

Humidity: 51%

Dew point: 59 °F

Location of UnnaoLocation

Historic Weather in Unnao — Graph

°F

Unnao temperature yesterday

Maximum temperature yesterday: 113 °F (at 2:30 PM)
Minimum temperature yesterday: 81 °F (at 5:30 AM)
Average temperature yesterday: 100 °F

Past Weeks' High & Low Weather Summary

 TemperatureHumidityPressure
High113 °F (May 10, 3:00 PM)79% (May 8, 4:00 AM)29.89 "Hg (May 8, 4:00 AM)
Low77 °F (May 12, 5:30 AM)13% (May 10, 3:30 PM)29.42 "Hg (May 22, 4:30 PM)
Average94 °F46%29.62 "Hg
* Reported May 8 4:00 AM — May 23 4:00 AM, Unnao, Weather by CustomWeather, © 2015

Note: Actual official high and low records may vary slightly from our data, if they occured in-between our weather recording intervals... More about our weather records

Advertising

Unnao weather history for previous 24 hours

 ConditionsComfort  
Time TempWeatherWind HumidityBarometerVisibility
4:00 AM
Sat, May 23
79 °FHaze.2 mph51%29.45 "Hg2 mi
3:00 AM81 °FHaze.2 mph48%29.45 "Hg2 mi
2:00 AM82 °FHaze.2 mph45%29.45 "Hg2 mi
1:00 AM82 °FHaze.2 mph45%29.45 "Hg2 mi
12:00 AM84 °FHaze.2 mph40%29.47 "Hg2 mi
11:00 PM
Fri, May 22
88 °FHaze.2 mph33%29.47 "Hg2 mi
10:00 PM93 °FHaze.3 mph28%29.47 "Hg2 mi
9:00 PM95 °FHaze.5 mph28%29.77 "Hg2 mi
8:30 PM95 °FDuststorm.3 mph28%29.47 "Hg3 mi
8:00 PM99 °FDuststorm.2 mph22%29.45 "Hg3 mi
7:30 PM100 °FDuststorm.2 mph21%29.45 "Hg3 mi
7:00 PM104 °FDuststorm.3 mph19%29.45 "Hg3 mi
6:30 PM108 °FDuststorm.7 mph17%29.42 "Hg3 mi
6:00 PM109 °FDuststorm.7 mph16%29.42 "Hg3 mi
5:30 PM111 °FDuststorm.10 mph15%29.42 "Hg3 mi
5:00 PM113 °FDuststorm.14 mph14%29.42 "Hg3 mi
4:30 PM113 °FDuststorm.15 mph13%29.42 "Hg3 mi
4:00 PM113 °FDuststorm.15 mph13%29.45 "Hg3 mi
3:30 PM113 °FDuststorm.15 mph13%29.45 "Hg3 mi
3:00 PM113 °FDuststorm.14 mph15%29.47 "Hg3 mi
2:30 PM113 °FDuststorm.15 mph13%29.47 "Hg3 mi
1:00 PM109 °FDuststorm.14 mph21%29.53 "Hg2 mi
12:30 PM109 °FDuststorm.14 mph22%29.53 "Hg2 mi
12:00 PM109 °FDuststorm.12 mph21%29.53 "Hg2 mi
11:30 AM108 °FDuststorm.12 mph23%29.53 "Hg2 mi
11:00 AM108 °FDuststorm.12 mph22%29.53 "Hg2 mi
10:30 AM104 °FDuststorm.8 mph24%29.56 "Hg2 mi
10:00 AM102 °FDuststorm.7 mph27%29.56 "Hg2 mi
9:30 AM100 °FDuststorm.9 mph27%29.56 "Hg2 mi
8:30 AM95 °FHaze.9 mph32%29.53 "Hg2 mi
8:00 AM93 °FHaze.8 mph34%29.53 "Hg2 mi
7:30 AM90 °FHaze.7 mph36%29.53 "Hg2 mi
6:30 AM84 °FClear.6 mph37%29.50 "Hg2 mi
5:30 AM81 °FClear.3 mph42%29.50 "Hg2 mi
5:00 AM82 °FHaze.3 mph37%29.50 "Hg2 mi
Weather by CustomWeather, © 2015

See weather overviewHow to use our weather pages